THORAD AGENA D DEB, 4932

Orbit data source: Space-Track

THORAD AGENA D DEB, 4932 is space debris in SSO originally from a launch on Wed, 08 Apr 1970 UTC launched from the Air Force Western Test Range (AFWTR). Debris objects in space refer to the collection of defunct objects orbiting the Earth. Examples of debris include non-operational satellites, rocket bodies, and fragments generated from explosions, collisions, or faulty payload assembly.

Loading next visibility...
Identifier
4932, 1970-025FY
Orbit
SSO
Country
Flag of USUS
Related business
Manufacturer
Unknown
Mission
Spacecraft
Bus & Motor
Unknown
Mass
Unknown
Launch date (UTC)
1970-04-08 (56 years ago)
Launch vehicle
Unknown
Launch site
Air Force Western Test Range (AFWTR)
Object type
Payload
Rocket body
Debris
Shape & HBR
Unknown shape, 0.1 m
Radar Cross Section
Medium (>0.1 m² and <1 m²)

Expand to show TLE details & history
Last TLE update: 11 hours ago

TLE from 11 hours ago
0 THORAD AGENA D DEB
1 04932U 70025FY  26236.86324384  .00001222  00000-0  87627-3 0  9999
2 04932  99.8031 263.3547 0030021 145.4025  29.9603 13.99038444812776
Epoch: 2026-08-24T20:43Z
TLE epoch observation values (Epoch: 2026-08-24T20:43:04.267Z)
Latitude
4.31136°
Longitude
160.19052°
Altitude
880.61 km
Speed
7.422 km/s
True Right ascension
05h 36m 23s
True Declination
4° 17' 10"
Sunlit
Object was in daylight at epoch
Visualization orbit readout
Latitude
Unknown
Longitude
Unknown
Altitude
Unknown
Speed
Unknown
Apparent Right ascension
Unknown
Apparent Declination
Unknown
Sunlit
N/A
Visualization observer readout
Local Sidereal Time
23:02:02
Azimuth
Unknown
Elevation
Unknown
Doppler factor
Unknown
Orbital elements
Apogee altitude
916.201 km
Perigee altitude
872.536 km
Semi-major axis
7,272.505 km
Eccentricity
0.003
Inclination
99.8031°
RAAN
263.3547°
Arg. of periapsis
145.4025°
True anomaly
30.13266°
Mean anomaly
29.9603°
Eccentric anomaly
30.04642°
Mean motion
3.49959 °/min
Orbital period
102.87 mins
BSTAR
0.00087627

Documentation

Showing up to 5 results
|